User: anonymous   Login
Location: Caltech
(34.1382°N, 118.1253°W)
Time: 16:26:06
(UTC-07:00)
Language:

RESURS DK-1 - Orbit

View from above orbital plane
View from above orbital plane
View from above satellite
View from above satellite

Ground track
Ground track

The orbit data is extracted from the following two-line orbital elements,

1 29228U 06021A   15245.89156921 +.00000312 +00000-0 +31512-4 0  9992
2 29228 069.9402 319.5783 0007759 263.5582 096.4695 15.01583076510012
Epoch (UTC): 02 September 2015 21:23:51
Eccentricity: 0.0007759
inclination: 69.9402°
perigee height: 556 km
apogee height: 567 km
right ascension of ascending node: 319.5783°
argument of perigee: 263.5582°
revolutions per day: 15.01583076
mean anomaly at epoch: 96.4695°
orbit number at epoch: 51001

The dashed part of the orbit path shows where the satellite is in the earth's shadow,  

DLR